Temperature
11 11 11 11 11 11 11 11 11 11 11 11 11 11 11 11 11 12 12 12 12 12 12 12 12 12 12 12 12 12 12 12 11 11 11 11 11 11 11 11 11 11 11
11 11 11 11 11 11 11 10 10 10 10 10 10 10 11 11 11 11 11 12 12 12 12 11 11 11 11 11 11 11 11 11 11 11 11 11 11 11 11 11 11 11 11
11 11 10 10 10 10 10 10 10 10 10 10 10 10 10 10 10 11 11 11 11 11 11 11 11 11 11 11 11 11 11 11 11 11 11 11 11 11 11 11 11 11 11
10 10 10 10 10 10 10 9 9 9 9 9 9 9 10 10 10 10 10 10 10 10 10 10 10 10 10 10 10 10 10 10 10 10 10 10 10 10 10 10 10 10 10
10 10 10 10 10 10 9 9 9 9 9 9 9 9 9 9 9 9 9 9 9 10 10 10 10 10 10 10 10 10 10 10 10 10 10 10 10 10 10 10 10 10 10
10 10 10 9 9 9 9 9 9 8 8 8 8 8 9 9 9 9 9 9 9 9 9 9 9 10 10 10 10 9 9 9 9 9 9 9 9 9 9 9 9 9 9
9 9 9 9 9 8 8 8 8 8 8 8 8 8 8 8 8 8 8 9 9 9 9 9 9 9 9 9 9 9 9 9 9 9 9 9 9 9 9 9 9 9 9
9 9 9 9 8 8 8 8 8 8 8 7 7 7 7 7 8 8 8 8 8 8 8 9 8 9 9 9 9 9 9 9 9 9 9 9 9 9 9 8 8 8 8
9 9 8 8 8 8 8 8 7 7 7 7 7 7 7 7 7 7 8 8 8 8 8 8 8 8 8 8 8 8 8 8 8 8 8 8 8 8 8 8 8 8 8
8 8 8 8 8 8 7 7 7 7 7 7 7 6 7 6 6 6 7 7 7 7 7 8 8 8 8 8 8 8 8 8 8 8 8 8 8 8 8 8 7 7 7
8 8 8 8 8 7 7 7 7 7 7 7 6 6 6 6 6 6 6 6 7 7 7 7 7 7 7 7 7 7 7 7 7 7 7 8 7 7 7 7 7 7 7
8 8 7 7 7 7 7 7 7 7 6 6 6 6 6 6 6 6 6 6 6 6 7 7 7 7 7 7 7 7 7 7 7 7 7 7 7 7 7 7 7 7 7
7 7 7 7 7 7 7 7 7 6 6 6 6 6 6 6 6 6 6 5 5 6 6 6 6 6 6 6 6 6 6 6 6 6 6 6 6 6 6 6 6 6 6
7 7 7 7 7 7 6 6 6 6 6 6 6 6 6 5 5 5 5 5 5 5 5 6 6 6 6 6 6 6 6 6 6 6 6 6 6 6 6 6 6 6 6
7 7 7 7 7 7 6 6 6 6 6 6 6 5 5 5 5 5 5 5 5 4 4 5 5 5 5 5 5 5 5 5 5 5 6 6 5 5 5 5 5 5 5
7 7 7 7 7 6 6 6 6 6 6 5 5 5 5 5 5 5 5 5 5 5 4 4 5 5 5 5 5 5 5 5 5 5 5 5 5 5 5 5 5 5 5
6 6 6 6 6 6 6 6 6 6 5 5 5 5 5 5 5 5 4 5 5 4 4 4 4 4 4 4 4 4 4 4 4 4 5 5 5 5 4 4 4 5 5
6 6 6 6 6 6 6 6 6 6 5 5 5 5 5 5 5 4 4 4 4 4 4 4 4 4 4 4 4 4 4 4 4 4 4 4 4 4 4 4 4 4 4
6 6 6 6 6 6 6 6 5 5 5 5 5 5 5 4 4 4 4 4 4 4 4 4 4 4 4 4 4 4 4 4 3 3 4 3 3 3 3 3 3 3 3
6 5 5 5 5 5 5 5 5 5 5 5 4 4 4 4 4 4 4 4 4 4 3 3 3 3 4 3 3 3 3 3 3 3 3 3 3 3 3 3 3 3 3
5 5 5 5 5 5 5 5 5 5 5 4 4 4 4 4 4 4 3 3 3 3 3 3 3 3 3 3 3 3 3 3 3 2 3 3 2 2 2 2 2 2 2
5 5 5 5 5 5 5 5 5 4 4 4 4 4 4 4 3 3 3 3 3 3 3 3 3 3 3 2 2 2 2 2 2 2 2 2 2 2 2 2 2 2 2
5 4 4 5 5 5 4 4 4 4 4 4 4 4 3 3 3 3 3 3 3 3 3 3 2 2 2 2 2 2 2 1 1 1 1 1 1 1 1 1 1 1 1
4 4 4 4 4 4 4 4 4 4 4 4 3 3 3 3 3 3 3 3 3 2 2 2 2 2 2 2 2 1 1 1 1 1 1 1 1 1 1 1 0 0 0
4 4 4 4 4 4 4 4 4 4 3 3 3 3 3 3 3 2 3 3 2 2 2 2 2 2 2 1 1 1 1 1 0 0 0 -0 0 0 1 0 -0 -0 -0
4 4 4 4 4 4 4 3 3 3 3 3 3 2 2 2 2 2 2 2 2 2 2 2 2 2 1 1 1 1 0 0 -0 -0 -0 -1 -1 -1 -1 -0 -0 -0 -0
Wind_Speed
1 0 0 1 1 1 1 1 2 2 3 3 3 4 4 4 4 4 4 7 8 9 10 10 10 10 10 10 9 9 9 9 9 9 9 9 9 9 9 10 11 12 13
0 0 1 1 1 1 1 2 3 3 3 3 4 4 4 4 4 4 5 7 9 10 11 11 11 11 11 11 11 10 10 10 10 9 9 10 10 10 10 11 11 12 13
0 0 1 1 1 2 2 2 3 2 3 3 4 4 4 4 5 5 4 5 7 10 11 12 12 12 12 12 12 11 11 11 11 10 10 10 11 12 12 12 13 13 13
1 0 1 1 1 2 1 2 2 2 3 3 3 4 4 4 5 6 5 5 5 6 9 12 12 12 12 12 12 11 11 11 11 11 11 12 12 13 14 13 14 14 14
1 1 1 1 1 1 1 2 2 2 3 3 4 4 4 5 5 6 5 5 5 5 6 9 11 12 12 12 12 11 12 12 12 12 12 12 12 13 14 14 14 15 15
2 1 1 1 1 1 1 2 2 2 3 4 5 5 5 5 5 5 5 4 5 5 6 6 7 9 11 12 12 12 12 12 13 12 12 13 13 14 14 15 15 15 16
2 1 1 1 1 2 2 2 2 3 3 3 3 5 5 5 5 4 3 3 4 5 4 5 5 5 6 10 11 12 12 13 13 13 13 13 13 14 15 15 15 15 16
2 2 2 2 2 2 3 2 2 2 3 2 2 3 3 3 3 4 4 3 3 3 3 5 5 5 4 4 7 11 12 12 13 13 13 14 14 14 14 15 15 16 16
3 3 3 2 3 3 3 4 3 4 3 3 2 2 2 3 3 3 3 3 3 3 3 3 4 4 4 4 4 6 9 11 12 13 13 13 14 14 14 15 15 16 16
3 3 3 3 3 3 4 4 4 4 3 3 3 3 4 3 2 3 3 3 3 3 4 3 3 3 4 4 5 7 9 10 12 13 13 13 14 15 15 15 15 16 16
2 3 3 3 3 4 4 4 4 4 3 4 3 3 4 3 3 3 5 5 3 3 3 3 3 3 4 4 4 6 8 10 11 12 12 12 13 15 15 16 15 15 16
2 2 3 3 4 4 4 4 4 5 4 4 4 3 3 3 3 3 4 5 5 4 3 2 2 3 3 3 5 7 8 9 10 11 11 12 13 14 15 15 15 15 16
2 3 3 3 3 4 4 4 4 5 5 4 4 4 3 3 3 3 3 5 6 5 3 2 2 3 3 2 3 6 8 9 10 10 11 11 12 13 14 15 15 16 16
3 3 3 3 4 4 4 4 3 4 4 4 5 4 3 3 2 2 3 4 5 5 4 4 2 2 2 2 4 6 6 9 10 10 10 11 12 12 13 15 15 16 16
2 3 3 3 3 3 3 3 3 4 4 4 4 3 3 2 2 2 3 3 3 5 5 4 3 3 3 3 5 5 5 7 9 10 11 11 11 12 13 14 14 15 14
2 3 3 2 2 3 3 3 3 3 3 3 3 3 2 2 2 2 2 2 2 3 5 4 3 4 4 4 6 5 5 9 10 11 11 10 10 11 12 13 13 13 13
1 2 2 2 2 2 2 3 3 3 3 3 3 3 3 2 2 2 1 1 2 2 4 5 3 3 4 4 4 5 6 6 7 10 10 10 10 11 12 13 12 12 12
1 2 2 2 2 2 2 2 3 2 2 3 3 2 2 2 1 1 1 1 2 2 3 4 4 3 4 4 4 5 5 7 6 10 10 10 10 10 10 10 9 10 11
1 1 1 2 2 2 1 2 2 2 2 2 2 2 2 1 1 1 1 1 1 2 2 2 4 4 3 3 4 5 6 5 7 9 10 11 10 10 9 9 9 10 10
1 1 1 2 2 2 1 1 1 1 1 1 1 1 1 2 2 1 1 1 1 1 1 1 3 4 3 3 3 4 5 5 6 7 9 10 11 10 11 11 11 11 11
1 1 1 1 2 2 1 1 1 0 1 1 1 0 0 1 1 1 1 1 0 1 1 1 2 3 3 3 3 3 5 5 5 5 5 6 6 5 7 10 10 11 10
1 0 1 1 1 2 3 2 1 1 1 1 1 1 1 1 1 2 2 2 1 1 1 2 2 2 3 3 3 4 4 5 5 4 5 6 5 5 5 6 9 11 10
1 0 1 1 1 2 2 2 2 2 1 1 1 1 1 1 2 2 3 4 4 4 3 1 1 2 3 3 3 3 4 4 5 5 5 5 5 5 6 8 12 11 11
1 1 1 1 1 2 3 2 3 2 2 2 1 1 2 1 1 2 3 3 4 4 4 2 1 2 2 3 2 2 3 4 4 4 4 4 5 5 6 6 10 11 12
1 1 1 1 1 2 3 3 3 2 2 2 2 3 2 2 3 3 3 3 3 4 5 6 5 5 6 7 6 3 3 3 4 4 4 3 4 5 5 4 7 12 12
1 1 2 1 1 1 3 4 4 2 3 2 3 3 4 4 3 4 3 2 2 2 3 4 5 5 5 6 8 4 2 3 3 3 4 4 4 4 4 3 4 7 9
Wind_Direction
192 332 354 341 325 308 297 294 289 269 265 265 255 256 255 261 256 243 225 231 234 242 250 252 252 254 255 254 253 252 254 255 255 256 257 259 260 261 261 265 265 259 259
103 292 290 302 307 304 295 288 285 284 273 270 272 271 265 266 263 254 229 231 231 237 246 250 251 253 255 255 256 255 256 257 258 257 259 261 262 263 264 264 267 268 264
144 198 249 267 297 303 302 307 295 296 290 285 282 283 276 264 264 264 252 239 233 236 242 249 254 255 257 258 257 256 256 258 257 259 261 263 264 266 266 266 266 266 268
256 283 227 247 278 303 308 297 290 302 294 286 283 281 280 271 260 256 250 242 236 235 241 248 254 257 259 260 260 260 259 261 260 260 262 264 266 267 267 268 268 268 267
245 255 233 246 265 277 284 289 308 294 292 289 282 277 272 274 270 262 249 237 234 232 233 249 251 255 258 259 260 264 265 264 263 262 264 267 268 270 271 271 271 271 270
257 241 232 257 285 269 280 277 280 286 279 278 286 283 272 267 264 258 252 243 237 236 233 239 243 252 255 258 260 264 267 269 268 266 267 269 269 270 271 273 272 272 271
246 231 239 240 253 250 255 262 278 284 288 291 297 297 283 265 256 254 258 260 251 243 239 239 233 241 253 258 261 265 268 272 274 274 272 273 272 272 272 272 274 274 273
234 248 223 226 232 250 257 253 257 264 274 280 284 302 299 295 277 268 254 249 256 251 236 245 241 242 242 251 262 269 271 276 280 280 277 275 275 274 273 274 273 273 275
221 231 225 225 228 233 242 243 239 246 261 265 258 247 270 268 301 276 255 253 244 257 257 241 238 238 241 251 252 269 275 278 281 282 281 279 278 277 277 277 277 278 276
219 225 230 230 228 233 242 244 246 247 246 257 264 252 252 261 278 298 297 275 260 258 256 267 263 255 248 247 251 259 271 274 277 281 284 285 284 281 280 282 283 284 284
237 231 238 236 233 238 240 239 245 246 243 247 253 262 273 272 262 264 287 296 292 271 258 257 262 262 258 250 248 252 266 273 279 284 287 288 290 290 285 283 284 285 286
264 248 251 249 245 241 239 237 236 238 240 243 247 248 257 263 264 261 273 288 294 288 282 279 277 274 265 258 261 259 265 274 280 285 289 293 294 293 289 285 286 286 287
280 260 259 253 255 245 238 238 240 240 238 237 237 245 249 255 260 267 271 283 291 297 297 289 274 271 278 277 284 273 273 280 280 282 287 291 293 295 293 288 288 287 287
265 261 255 255 252 250 249 240 244 243 237 232 236 238 245 248 247 248 254 271 290 298 298 290 302 306 308 304 308 296 295 290 287 289 290 289 289 293 296 295 291 288 286
277 275 266 257 251 247 247 240 238 241 233 233 234 232 241 254 251 254 245 241 250 282 292 299 315 318 326 331 321 319 307 302 305 301 297 291 289 292 295 297 296 289 288
271 269 274 270 266 251 245 243 241 235 231 234 226 225 243 259 257 256 253 256 246 255 276 289 303 308 314 320 318 321 314 310 305 303 300 299 298 296 296 296 296 290 287
254 264 272 271 269 258 250 242 241 237 229 233 234 229 245 259 258 259 264 266 262 250 267 290 302 317 318 317 322 325 320 315 311 313 312 305 302 304 302 294 293 296 290
252 253 271 281 281 281 265 241 253 249 237 237 234 225 240 250 261 261 252 271 271 264 258 282 301 313 316 317 328 328 333 332 330 323 324 319 315 316 312 309 309 311 308
259 266 276 280 295 297 279 250 254 250 239 241 230 214 224 218 251 253 269 284 300 310 292 276 300 315 323 337 344 340 342 343 338 338 342 336 333 331 330 330 329 324 321
238 244 266 277 287 297 290 278 267 266 270 253 223 202 215 214 220 214 255 280 318 338 337 321 311 315 324 336 348 340 334 337 334 341 341 335 336 337 339 335 332 327 323
262 244 276 296 302 297 292 300 266 53 61 63 71 79 303 288 272 281 259 243 290 305 315 304 306 318 324 338 332 326 326 327 330 344 338 338 339 340 337 332 332 330 326
316 281 272 292 315 313 327 358 34 113 97 86 67 62 37 62 40 0 344 334 303 284 278 291 303 314 319 323 328 331 329 329 326 342 341 332 345 340 339 335 333 335 334
326 338 314 304 305 324 2 41 45 78 94 101 104 88 50 41 28 53 26 22 16 3 340 304 296 307 311 321 322 328 330 325 311 317 329 324 336 334 332 341 351 354 349
346 344 325 325 356 2 28 42 43 69 82 75 75 84 86 69 49 60 57 40 28 17 11 18 33 4 0 355 344 320 314 324 321 335 343 324 328 329 333 339 350 356 356
352 7 15 10 24 16 40 54 57 92 77 60 54 58 69 80 52 49 61 52 33 23 31 41 39 37 24 14 5 1 351 345 332 332 349 336 322 323 327 335 345 352 355
14 39 27 14 34 49 45 60 66 90 77 59 49 52 48 52 46 37 53 67 46 9 22 26 29 28 26 18 12 10 348 333 320 320 340 344 327 335 331 335 349 349 350
Height
1495 1494 1494 1494 1494 1493 1493 1493 1493 1492 1492 1492 1492 1492 1493 1493 1493 1494 1494 1494 1495 1496 1496 1496 1497 1497 1498 1498 1498 1498 1499 1499 1499 1500 1500 1500 1500 1499 1499 1499 1499 1499 1499
1493 1492 1492 1491 1491 1491 1490 1490 1490 1490 1489 1489 1489 1489 1489 1489 1489 1490 1490 1490 1490 1491 1492 1492 1493 1493 1494 1494 1494 1495 1495 1495 1495 1495 1495 1495 1495 1495 1495 1495 1494 1494 1494
1491 1490 1490 1489 1489 1489 1488 1488 1487 1487 1486 1486 1485 1485 1485 1485 1485 1485 1485 1486 1486 1486 1487 1488 1489 1489 1489 1490 1490 1490 1490 1490 1491 1490 1490 1490 1490 1490 1490 1490 1490 1489 1489
1488 1488 1487 1487 1487 1486 1486 1485 1484 1484 1483 1483 1482 1481 1481 1481 1481 1481 1481 1482 1482 1482 1483 1483 1484 1484 1485 1485 1485 1486 1486 1486 1486 1486 1485 1485 1485 1485 1485 1485 1484 1484 1484
1485 1485 1485 1485 1484 1484 1483 1482 1482 1481 1480 1480 1479 1478 1477 1477 1477 1477 1477 1477 1478 1478 1478 1479 1479 1480 1480 1481 1481 1481 1481 1481 1481 1481 1480 1480 1480 1480 1480 1479 1479 1479 1478
1483 1482 1482 1482 1481 1481 1480 1480 1479 1478 1478 1477 1476 1475 1474 1473 1472 1473 1473 1473 1474 1474 1474 1474 1475 1475 1475 1476 1476 1476 1476 1477 1476 1476 1475 1475 1474 1474 1474 1473 1473 1473 1473
1480 1479 1479 1479 1478 1477 1477 1477 1476 1476 1475 1475 1473 1471 1470 1469 1469 1469 1470 1470 1470 1470 1470 1470 1470 1471 1471 1471 1471 1471 1471 1471 1471 1471 1470 1469 1469 1468 1468 1468 1467 1467 1466
1477 1476 1476 1475 1475 1474 1474 1474 1473 1472 1472 1472 1471 1469 1467 1466 1465 1466 1466 1466 1466 1466 1466 1466 1466 1466 1466 1466 1465 1466 1466 1466 1466 1465 1465 1464 1463 1463 1462 1462 1461 1461 1460
1474 1473 1473 1472 1472 1471 1471 1470 1470 1470 1469 1469 1470 1470 1467 1464 1462 1461 1462 1462 1462 1462 1462 1462 1462 1462 1462 1461 1461 1461 1461 1461 1460 1460 1459 1459 1458 1457 1457 1456 1455 1455 1454
1470 1470 1469 1469 1468 1468 1467 1467 1467 1466 1466 1466 1466 1466 1466 1464 1462 1458 1458 1458 1458 1458 1458 1457 1457 1457 1457 1456 1456 1456 1456 1455 1455 1455 1454 1453 1452 1451 1451 1450 1449 1448 1448
1466 1466 1466 1465 1465 1464 1464 1464 1463 1463 1463 1462 1462 1462 1462 1461 1460 1459 1455 1453 1454 1454 1454 1453 1453 1453 1452 1452 1451 1451 1451 1451 1450 1449 1449 1448 1446 1445 1444 1444 1442 1442 1441
1463 1462 1462 1461 1461 1460 1460 1460 1459 1459 1459 1459 1458 1458 1458 1457 1457 1456 1453 1451 1450 1449 1449 1449 1449 1449 1448 1447 1447 1446 1446 1445 1445 1444 1443 1442 1440 1439 1438 1437 1436 1435 1434
1459 1458 1458 1458 1457 1456 1456 1456 1455 1455 1455 1455 1454 1454 1454 1454 1454 1454 1452 1449 1447 1446 1445 1445 1445 1445 1444 1443 1443 1442 1441 1440 1439 1438 1437 1435 1434 1433 1432 1431 1430 1429 1428
1455 1455 1455 1454 1453 1453 1452 1452 1451 1451 1451 1450 1450 1450 1450 1450 1450 1450 1450 1448 1445 1442 1442 1441 1441 1441 1440 1439 1438 1437 1436 1435 1433 1432 1430 1428 1427 1426 1426 1425 1423 1422 1422
1452 1452 1452 1451 1450 1449 1448 1448 1447 1447 1447 1446 1446 1446 1446 1446 1446 1446 1446 1446 1445 1441 1438 1438 1438 1437 1436 1435 1434 1433 1431 1430 1428 1426 1423 1421 1421 1420 1419 1418 1417 1416 1416
1449 1449 1448 1448 1447 1446 1445 1444 1444 1443 1443 1443 1443 1442 1442 1442 1443 1443 1442 1442 1442 1440 1437 1435 1435 1434 1433 1432 1431 1429 1427 1425 1423 1420 1418 1416 1416 1415 1414 1413 1411 1410 1410
1446 1445 1445 1444 1444 1443 1442 1441 1441 1440 1440 1439 1439 1439 1439 1439 1439 1439 1439 1439 1438 1437 1435 1432 1433 1432 1430 1428 1427 1425 1423 1421 1418 1416 1414 1413 1412 1410 1409 1408 1406 1405 1404
1443 1443 1442 1442 1441 1440 1439 1438 1438 1437 1436 1436 1436 1436 1436 1436 1435 1435 1435 1435 1435 1434 1433 1430 1429 1428 1427 1426 1424 1422 1420 1418 1415 1413 1412 1410 1408 1406 1404 1403 1402 1400 1399
1440 1440 1439 1439 1438 1438 1437 1436 1435 1434 1434 1434 1433 1433 1433 1433 1432 1433 1432 1432 1432 1431 1431 1428 1426 1425 1424 1423 1421 1419 1418 1415 1413 1411 1409 1407 1405 1403 1400 1399 1397 1395 1394
1437 1437 1437 1436 1436 1435 1434 1433 1433 1432 1432 1431 1431 1431 1431 1431 1430 1430 1430 1430 1430 1429 1428 1427 1425 1423 1422 1421 1420 1418 1415 1413 1411 1409 1407 1404 1402 1400 1398 1396 1393 1391 1390
1435 1434 1434 1434 1433 1433 1432 1431 1430 1430 1429 1429 1429 1429 1429 1428 1428 1429 1429 1428 1428 1427 1426 1425 1423 1421 1420 1419 1418 1416 1414 1411 1409 1407 1404 1402 1400 1397 1395 1393 1390 1388 1387
1432 1432 1432 1431 1431 1430 1430 1429 1429 1428 1427 1427 1427 1427 1427 1427 1427 1427 1427 1427 1427 1426 1424 1423 1422 1420 1419 1418 1417 1415 1413 1410 1407 1406 1403 1400 1399 1396 1393 1390 1387 1385 1383
1430 1430 1429 1429 1428 1428 1428 1427 1427 1426 1426 1426 1425 1425 1425 1425 1425 1425 1425 1425 1424 1424 1424 1423 1421 1419 1418 1417 1416 1414 1412 1410 1407 1405 1402 1398 1397 1394 1392 1389 1386 1383 1381
1429 1428 1428 1427 1427 1426 1426 1426 1426 1425 1425 1425 1425 1424 1424 1424 1424 1424 1423 1423 1423 1422 1422 1421 1420 1419 1418 1416 1415 1414 1411 1408 1406 1404 1402 1398 1395 1393 1390 1388 1385 1383 1380
1427 1426 1426 1426 1425 1425 1425 1425 1424 1424 1424 1424 1424 1424 1423 1423 1423 1423 1423 1422 1421 1421 1420 1420 1419 1418 1416 1415 1414 1412 1410 1408 1405 1403 1402 1399 1395 1392 1389 1387 1385 1383 1380
1425 1425 1425 1425 1424 1424 1424 1424 1424 1423 1422 1422 1423 1423 1423 1423 1423 1423 1422 1421 1420 1419 1419 1418 1417 1416 1415 1414 1413 1412 1410 1407 1405 1402 1401 1399 1395 1392 1389 1387 1385 1382 1379